sat.trackr.live / text

‹ back to catalog

STARLINK-31770

NORAD 59601 · 2024-080A

PAYLOAD ACTIVE UNKNOWN

§ Identity

Operator
Country
US
Launch date
2024-04-28
Launch site
AFETR
Launch vehicle
Mass (kg)
RCS (m²)

Purposes: comms

External: N2YO · Heavens-Above · Gunter

§ Orbital elements

Epoch: 2026-05-24T21:25:48.110016Z

Period
94.27 min
Inclination
43.0021°
Eccentricity
0.0000901
Mean motion
15.27577115 rev/d
Perigee alt
482.4 km
Apogee alt
483.7 km
Semi-major
6,861.2 km
B*
3.9840e-5
RAAN
327.8410°
Arg perigee
282.1879°
Mean anomaly
77.8872°
Rev number
11,739

§ Raw data

STARLINK-317701 59601U 24080A   26144.89291794  .00000834  00000+0  39840-4 0  99932 59601  43.0021 327.8410 0000901 282.1879  77.8872 15.27577115117396

JSON: /api/v1/satellites/59601 · /tle

For live sub-satellite position, see the globe view (requires WebGL).

§ Visibility from observer

Set your observer location to see the next 7 days of passes ≥ 10°. The values pass through the URL so the page stays shareable.

No JS? Fill the form by hand. The geolocation button needs JavaScript.